Regional Weather Roundup
Issued by NWS

Home | Current Version | Previous Version | Text Only | Print | Product List | Glossary Off
Versions: 1 2 3 4 5 6 7 8 9 10 11 12 13 14 15 16 17 18 19 20 21 22 23 24 25 26 27 28 29 30 31 32 33 34 35 36 37 38 39 40 41 42 43 44 45 46 47 48 49 50

000
ASUS43 KDTX 171601
RWRMI
MICHIGAN HOURLY REGIONAL WEATHER ROUNDUP
NATIONAL WEATHER SERVICE DETROIT/PONTIAC MI
1200 PM EDT WED SEP 17 2014

NOTE: "FAIR" INDICATES FEW OR NO CLOUDS BELOW 12,000 FEET WITH NO
SIGNIFICANT WEATHER AND/OR OBSTRUCTION TO VISIBILITY.

MIZ047>049-052>055-059>063-066>070-074>076-081>083-171700-
SOUTHEAST LOWER MICHIGAN

CITY           SKY/WX    TMP DP  RH WIND       PRES   REMARKS
ADRIAN         SUNNY     60  42  51 NW6       30.05F
ALMA           SUNNY     62  50  63 W7        30.02F
ANN ARBOR      SUNNY     61  43  51 VRB3      30.03F
BAD AXE        SUNNY     62  52  70 W8        30.00F
CARO           SUNNY     62  51  66 SW9       30.00F
DETROIT CITY   SUNNY     63  42  46 MISG      30.03F
DETROIT        MOSUNNY   61  44  53 CALM      30.04F
FLINT          SUNNY     63  44  50 CALM      30.03F
GROSSE ILE     SUNNY     61  43  51 W5        30.02F
HILLSDALE      SUNNY     62  40  45 CALM      30.04S

CITY           SKY/WX    TMP DP  RH WIND       PRES   REMARKS
LAMBERTVILLE   SUNNY     63  45  51 W6        30.04F
LANSING        SUNNY     61  44  53 W7        30.03F
LAPEER         FAIR      60  41  49 CALM      30.02F
MASON          SUNNY     60  43  53 W3        30.03F
MT. CLEMENS    MOSUNNY   61  41  47 VRB5      30.01F
PONTIAC        SUNNY     60  44  55 W6        30.01F
PORT HOPE        N/A     62  49  62 W7        29.98F
TRI CITIES     SUNNY     63  50  62 W9        30.02F
SAGINAW HB     SUNNY     63  46  55 W5        30.01F
$$
MIZ043>046-050>051-056>058-064>065-071>073-077>080-171700-
SOUTHWEST LOWER MICHIGAN

CITY           SKY/WX    TMP DP  RH WIND       PRES   REMARKS
BATTLE CREEK   SUNNY     61  42  49 CALM      30.04F
BENTON HARBOR  MOSUNNY   63  48  58 VRB3      30.03F
FREMONT        PTSUNNY   63  43  48 W7        30.01S
HOLLAND        CLOUDY    61  52  72 S5        30.03F
GRAND RAPIDS   MOSUNNY   64  50  60 SW10      30.03F
IONIA          FAIR      64  46  53 SW7       30.02F
KALAMAZOO      SUNNY     62  45  53 VRB5      30.05S
LUDINGTON      SUNNY     62  50  65 W8        30.01F
MARSHALL       SUNNY     61  43  52 CALM      30.03F
SOUTH HAVEN    SUNNY     64  49  59 S6        30.03S
$$
MIZ016>042-171700-
NORTHERN LOWER MICHIGAN

CITY           SKY/WX    TMP DP  RH WIND       PRES   REMARKS
ALPENA         PTSUNNY   64  48  56 W10       29.95F
BELLAIRE       MOSUNNY   64  49  57 W5        29.98S
CADILLAC       SUNNY     61  47  60 W12       29.99F
CHARLEVOIX     SUNNY     64  53  68 W16       30.00S
GAYLORD        MOSUNNY   60  45  57 W14G21    29.98S
GRAYLING       MOSUNNY   64  46  52 W12       29.99S
HOUGHTON LAKE  MOSUNNY   62  45  53 W13       29.99F
MANISTEE       SUNNY     63  46  55 W8        30.01S
OSCODA         SUNNY     67  49  52 W10       29.96F
TRAVERSE CITY  MOSUNNY   64  48  56 W13       29.97F
$$
MIZ007>008-015-171700-
EASTERN UPPER MICHIGAN

CITY           SKY/WX    TMP DP  RH WIND       PRES   REMARKS
KINROSS        PTSUNNY   55  52  88 W7        29.92F
NEWBERRY       CLOUDY    58  47  68 W10G16    29.92F
$$
MIZ004>006-011>014-085-171700-
CENTRAL UPPER MICHIGAN

CITY           SKY/WX    TMP DP  RH WIND       PRES   REMARKS
MANISTIQUE     PTSUNNY   59  48  66 W6        29.94S
ESCANABA       MOSUNNY   63  45  51 W10G20    29.94F
MENOMINEE      SUNNY     63  46  55 W7        29.95F
SAWYER-GWINN   MOSUNNY   55  46  71 W6        29.93F
$$
MIZ001>003-009>011-084-171700-
WESTERN UPPER MICHIGAN

CITY           SKY/WX    TMP DP  RH WIND       PRES   REMARKS
IRON MOUNTAIN  SUNNY     63  44  50 W10       29.93F
HOUGHTON       CLOUDY    47  44  90 E10       29.95R
COPPER HARBOR    N/A     43  39  86 SE8       29.98R
IRONWOOD       PTSUNNY   61  48  63 W8        29.92S
$$

ABBREVIATIONS USED IN REMARKS
   TC - TEMPERATURE IN CELSIUS
  WCI - WIND CHILL INDEX
   HX - HEAT INDEX
  VSB - VISIBILITY



USA.gov is the U.S. government's official web portal to all federal, state and local government web resources and services.